Regional Weather Roundup
Issued by NWS Binghamton, NY

Home | Current Version | Previous Version | Text Only | Print | Product List | Glossary On
Versions: 1 2 3 4 5 6 7 8 9 10 11 12 13 14 15 16 17 18 19 20 21 22 23 24 25 26 27 28 29 30 31 32 33 34 35 36 37 38 39 40 41 42 43 44 45 46 47 48 49
000
ASUS41 KBGM 042310
RWRBGM
RWRBGM
BINGHAMTON REGIONAL WEATHER ROUNDUP
NATIONAL WEATHER SERVICE BINGHAMTON NY
700 PM EDT MON MAY 04 2015

Note: "fair" indicates few or no clouds below 12,000 feet with no
significant weather and/or obstructions to visibility.

* = Station(s) that does not report precipitation, such as rain,
snow, etc, also no thunder or fog.

!NYZ009-015>018-022>025-036-037-044>046-055>057-062-050000
...CENTRAL NEW YORK...

CITY           SKY/WX    TMP DP  RH WIND       PRES   REMARKS
BINGHAMTON     CLOUDY    76  40  27 SW12G18   30.08S
CORTLAND       CLOUDY    73  43  33 W5        30.08R
DANSVILLE      CLOUDY    73  49  42 W9G23     30.09R
ELMIRA         CLOUDY    80  43  26 W10       30.05R
ITHACA         CLOUDY    73  45  35 NW8       30.09R
MONTICELLO     PTCLDY    77  39  25 W15       30.12S
PENN YAN       CLOUDY    75  48  38 W7        30.07R
ROME           LGT RAIN  72  45  37 NW10      30.04R
SYRACUSE       CLOUDY    73  46  38 NW9       30.05R
$$

!PAZ038>040-043-044-047-048-072-050000
...NORTHEAST PENNSYLVANIA...

CITY           SKY/WX    TMP DP  RH WIND       PRES   REMARKS
HAZLETON       SUNNY     77  39  25 S5        30.17S
SCRANTON       SUNNY     82  37  20 SW14      30.09S
TOWANDA*       MOSUNNY   81  41  24 MISG      30.06R
$$
&&
KEY
WCI = WIND CHILL INDEX
VSB = VISIBILITY
HX  = HEAT INDEX
$$


USA.gov is the U.S. government's official web portal to all federal, state and local government web resources and services.